Regional Weather Roundup
Issued by NWS Upton, NY

Current Version | Previous Version | Graphics & Text | Print | Product List | Glossary Off
Versions: 1 2 3 4 5 6 7 8 9 10 11 12 13 14 15 16 17 18 19 20 21 22 23 24 25 26 27 28 29 30 31 32 33 34 35 36 37 38 39 40 41 42 43 44 45 46 47 48 49 50

000
ASUS41 KOKX 260005
RWROKX

REGIONAL WEATHER ROUNDUP
NATIONAL WEATHER SERVICE NEW YORK NY
700 PM EST THU DEC 25 2014

NOTE: "FAIR" INDICATES FEW OR NO CLOUDS BELOW 12,000 FEET WITH NO
SIGNIFICANT WEATHER AND/OR OBSTRUCTIONS TO VISIBILITY.

NYZ071-072-176-178-NJZ106-104-260100-
NEW YORK CITY METRO AREA


CITY           SKY/WX    TMP DP  RH WIND       PRES   REMARKS
CENTRAL PARK   CLEAR     48  29  47 W9G18     30.02R
LAGUARDIA APRT PTCLDY    49  29  46 W13G26    30.00R
KENNEDY INTL   PTCLDY    49  29  46 W15       30.01R
NEWARK/LIBERTY PTCLDY    47  30  51 W9        30.01R
BRNX BOT. GARD   N/A    N/A N/A N/A W6        30.01R
TETERBORO      CLEAR     48  30  49 W12       30.00R
$$

NYZ177-179-078>081-260100-
LONG ISLAND NEW YORK

CITY           SKY/WX    TMP DP  RH WIND       PRES   REMARKS
FARMINGDALE    CLEAR     47  30  51 W9        30.00R
ISLIP          PTCLDY    46  29  51 W8        29.97R
SHIRLEY        CLEAR     48  30  49 W10       29.98R
WESTHAMPTON    CLEAR     43  29  57 W10       29.98R
MONTAUK POINT    N/A     48  35  60 W10       29.94R
$$

NYZ052-065-067-260100-
HUDSON VALLEY

CITY           SKY/WX    TMP DP  RH WIND       PRES   REMARKS
WHITE PLAINS   CLEAR     46  27  47 W21G28    29.97R
NEWBURGH       PTCLDY    46  32  57 W17G25    29.98R
MONTGOMERY     CLOUDY    46  29  51 W13G18    29.98R
POUGHKEEPSIE   CLOUDY    48  28  46 W16G24    29.97R
ALBANY         CLOUDY    44  32  62 NW13      29.96R
$$

NJZ001-105-106-008-010-013-015-019>022-104-260100-
NEW JERSEY

CITY           SKY/WX    TMP DP  RH WIND       PRES   REMARKS
NEWARK/LIBERTY PTCLDY    47  30  51 W9        30.01R
TETERBORO      CLEAR     48  30  49 W12       30.00R
CALDWELL       PTCLDY    46  29  51 W8        30.01R
MORRISTOWN     NOT AVBL
SOMERVILLE     CLEAR     46  30  53 VRB5      30.02R
SUSSEX         CLOUDY    46  29  51 W8        30.02R
ANDOVER        NOT AVBL
TRENTON        CLEAR     46  29  51 W8        30.05R
MILLVILLE      CLEAR     45  31  58 W9        30.09R
ATLANTIC CITY  CLEAR     45  30  55 W7        30.07R
WRIGHTSTOWN    CLEAR     46  30  54 NW13      30.04R
TOMS RIVER     CLEAR     39  30  70 W6        30.05R WCI  35
BELMAR         CLEAR     45  28  53 SW6       30.03S
$$

PAZ047>061-062-071-260100-
EASTERN PENNSYLVANIA

CITY           SKY/WX    TMP DP  RH WIND       PRES   REMARKS
PHILADELPHIA   PTCLDY    48  29  47 W12       30.10R
ALLENTOWN      CLOUDY    46  30  53 W8G20     30.05R
SCRANTON       CLOUDY    43  28  55 W21G26    30.05R
$$

CTZ002-004>006-009-010-012-RIZ004-006-007-MAZ004-011-015-260100-
SOUTHERN NEW ENGLAND
 IN CT

CITY           SKY/WX    TMP DP  RH WIND       PRES   REMARKS
BRADLEY INTL   PTCLDY    47  27  45 NW15G21   29.89R
HARTFORD       FAIR      47  28  47 W10       29.91R
DANBURY        CLEAR     46  26  45 W10G22    29.97R
WTRBRY/OXFORD  CLEAR     45  27  49 W9G20     29.92R
BRIDGEPORT     CLEAR     48  31  51 W12G18    29.95R
MERIDEN        CLEAR     47  27  45 W6        29.93R
NEW HAVEN      PTCLDY    51  29  42 W9        29.94R
CHESTER        FAIR      45  30  57 W5        29.92R
GROTON         CLEAR     46  30  53 W10       29.91R
WILLIMANTIC    CLEAR     46  28  49 W3        29.89R

 IN RI

CITY           SKY/WX    TMP DP  RH WIND       PRES   REMARKS
PROVIDENCE     CLEAR     47  28  47 W10G18    29.88R
BLOCK ISLAND   CLEAR     46  34  61 W14G21    29.91R
WESTERLY       CLEAR     47  30  51 SW7       29.91R

 IN MA

CITY           SKY/WX    TMP DP  RH WIND       PRES   REMARKS
BOSTON         CLEAR     47  30  51 W22       29.82R
WORCESTER      CLEAR     42  27  55 W17G26    29.81R
WESTFIELD      MOCLDY    47  27  45 NW15G22   29.89R
PROVINCETOWN   CLEAR     46  32  57 W14       29.84R
NANTUCKET      CLEAR     47  32  56 W14       29.88R
$$

ANZ330-335-338-340-345-350-353-355-260100-
COASTAL MARINE OBSERVATIONS


STATION/POSITION TIME  SKY/WX   TEMP    WIND        PRES    VSBY  WAVE
                                AIR SEA DIR/SP/G                  HT/PER
                 (UTC)          (F)     (DEG/KT/KT) (MB)    (MI)  (FT/S)
NY HARB ENTRANCE 0000            48 46  270/ 14/ 19 1016.9          4/ 9
4S FIRE IS       0000               47                N/A           5/ 8
20S FIRE ISLAND  2300            49 49              1014.7          7/ 9
23SW MTP         0000                                 N/A           6/ 8
HUDSON CANYON    0000            51 55  300/ 21/ 27 1016.0          9/ 7
EXECUTION ROCKS  0000            48 42  290/ 12/ 17   N/A
WESTERN LI SOUND 2300            49     280/ 16/ 19   N/A           2/ 2
CENTRAL LI SOUND 2300            48 44  270/ 17/ 23   N/A           4/ 4
EASTERN LI SOUND NOT AVBL
ROBBINS REEF     0000            48                 1014.7
$$


>>>>>>>>>>>>>>>>>>>>>>>>>>>> KEY <<<<<<<<<<<<<<<<<<<<<<<<<<<
>                                                          <
>     SKY/WX - SKY CONDITION/PRESENT WEATHER               <
>     TMP    - TEMPERATURE IN FAHRENHEIT                   <
>     DP     - DEWPOINT IN FAHRENHEIT                      <
>     RH     - RELATIVE HUMIDITY IN PERCENT                <
>     WIND   - DIRECTION AND SPEED IN MPH                  <
>     PRES   - MEAN SEA LEVEL PRESSURE IN INCHES OF HG     <
>     WCI    - WIND CHILL INDEX                            <
>     VSB    - VISIBILITY IN MILES                         <
>     HX     - HEAT INDEX                                  <
>     TC     - TEMPERATURE IN CELSIUS                      <
>     VRB    - VARIABLE WIND DIRECTION                     <
>                                                          <
>>>>>>>>>>>>>>>>>>>>>>>>>>>> KEY <<<<<<<<<<<<<<<<<<<<<<<<<<<




USA.gov is the U.S. government's official web portal to all federal, state and local government web resources and services.